Location: Ajisawe
(8.4333°N, 4.3833°E)
Time: 22:39:58
(UTC+00:00)

Vanguard 1 Rocket - Pass Details

Date: 26 April 2021
Orbit: 652 x 4224 km, 34.3° (Epoch: 10 May)

Event Time Altitude Azimuth Distance (km) Brightness Sun altitude
Rises 20:02:35 0° 281° (W) 3,535 11.5 -31.6°
Reaches altitude 10° 20:04:56 10° 270° (W) 2,847 10.7 -32.2°
Maximum altitude 20:11:08 33° 207° (SSW) 2,271 9.3 -33.6°
Enters shadow 20:13:06 31° 186° (S) 2,580 9.4 -34.0°
